Satellite-Ground Cal/Val Site Overpasses Predictions

Prediction of Satellite NPP Overpassing Cal/Val Site: Antarctic Dome C

Ground Cal/Val Site Location: Latitude: -75.10, Longitude: 123.35; Satellite-Ground Site NADIR distance within 100 km.

Table of predicted overpasses for the next 14.0 days since TLE Epoch: 10/8/2012
Interval Starting Time Ending Time Minimum Distance Time Minimum Distance (km)
1 10/08/2012 15:05:18 10/08/2012 15:05:28 10/08/2012 15:05:23 93.45
2 10/09/2012 14:46:17 10/09/2012 14:46:46 10/09/2012 14:46:31 17.85
3 10/11/2012 07:29:06 10/11/2012 07:29:35 10/11/2012 07:29:20 2.19
4 10/14/2012 14:52:29 10/14/2012 14:52:58 10/14/2012 14:52:43 18.26
5 10/15/2012 14:33:47 10/15/2012 14:34:00 10/15/2012 14:33:54 88.74
6 10/16/2012 07:35:17 10/16/2012 07:35:45 10/16/2012 07:35:31 33.84
7 10/17/2012 07:16:31 10/17/2012 07:16:50 10/17/2012 07:16:40 76.48
8 10/19/2012 14:58:42 10/19/2012 14:59:07 10/19/2012 14:58:55 54.84
9 10/20/2012 14:39:51 10/20/2012 14:40:15 10/20/2012 14:40:03 54.32
